Weather History for Mammoth, CA

Change the Weather History Date:

Wednesday, October 16, 2013

  Actual Average Record
Temperature  
Mean Temperature 37 °F -  
Max Temperature 62 °F 58 °F 78 °F (2012)
Min Temperature 12 °F 37 °F 12 °F (2013)
Degree Days  
Heating Degree Days 28    
Moisture  
Dew Point 11 °F    
Average Humidity 41    
Maximum Humidity 73    
Minimum Humidity 12    
Precipitation  
Precipitation 0.00 in - - ()
Sea Level Pressure  
Sea Level Pressure 30.26 in    
Wind  
Wind Speed 4 mph (East)    
Max Wind Speed 14 mph    
Max Gust Speed 17 mph    
Visibility 10 miles    
Events      
Averages and records for this station are not official NWS values.
T = Trace of Precipitation, MM = Missing Value Source: NWS Daily Summary

Daily Weather History Graph

Daily Weather History Graph

Search for Another Location

Airport:

Trip Planner

Search our weather history database for the weather conditions in past years. The results will help you decide how hot, cold, wet, or windy it might be!

Date:

Astronomy

Oct. 16, 2013 Rise Set
Actual Time 7:04 AM PDT 6:16 PM PDT
Civil Twilight 6:38 AM PDT 6:42 PM PDT
Nautical Twilight 6:08 AM PDT 7:12 PM PDT
Astronomical Twilight 5:37 AM PDT 7:43 PM PDT
Moon 4:56 PM PDT (10/16) 4:40 AM PDT (10/16)
Length of Visible Light 12h 04m
Length of Day
11h 11m
Waxing Gibbous, 94% of the Moon is Illuminated
Oct 16
Waxing Gibbous
Oct 18
Full
Oct 26
Last Quarter
Nov 3
New
Nov 9
First Quarter

Hourly Weather History & Observations

Time (PDT) Temp. Windchill Dew Point Humidity Pressure Visibility Wind Dir Wind Speed Gust Speed Precip Events Conditions
12:15 AM 30.2 °F 25.4 °F 15.8 °F 55% 30.28 in 10.0 mi NW 4.6 mph - N/A   Clear
12:35 AM 28.4 °F 24.6 °F 15.8 °F 59% 30.28 in 10.0 mi NW 3.5 mph - N/A   Clear
12:55 AM 26.6 °F - 14.0 °F 59% 30.28 in 10.0 mi Calm Calm - N/A   Clear
1:15 AM 28.4 °F 24.6 °F 15.8 °F 59% 30.28 in 10.0 mi NNW 3.5 mph - N/A   Clear
1:35 AM 26.6 °F 22.6 °F 14.0 °F 59% 30.28 in 10.0 mi NNW 3.5 mph - N/A   Clear
1:55 AM 24.8 °F 20.5 °F 14.0 °F 64% 30.28 in 10.0 mi NNW 3.5 mph - N/A   Clear
2:15 AM 24.8 °F 20.5 °F 14.0 °F 64% 30.28 in 10.0 mi NW 3.5 mph - N/A   Clear
2:35 AM 24.8 °F 20.5 °F 12.2 °F 59% 30.27 in 10.0 mi North 3.5 mph - N/A   Clear
2:55 AM 23.0 °F - 12.2 °F 63% 30.26 in 10.0 mi North - - N/A   Clear
3:15 AM 21.2 °F - 12.2 °F 68% 30.26 in 10.0 mi North - - N/A   Clear
3:35 AM 23.0 °F - 12.2 °F 63% 30.26 in 10.0 mi North - - N/A   Clear
3:55 AM 21.2 °F 16.4 °F 10.4 °F 63% 30.26 in 10.0 mi NNW 3.5 mph - N/A   Clear
4:15 AM 17.6 °F 12.3 °F 10.4 °F 73% 30.25 in 10.0 mi NNW 3.5 mph - N/A   Clear
4:35 AM 15.8 °F - 8.6 °F 73% 30.25 in 10.0 mi Calm Calm - N/A   Clear
4:55 AM 15.8 °F - 8.6 °F 73% 30.25 in 10.0 mi Calm Calm - N/A   Clear
5:15 AM 17.6 °F 10.7 °F 8.6 °F 68% 30.25 in 10.0 mi North 4.6 mph - N/A   Clear
5:35 AM 15.8 °F 8.6 °F 6.8 °F 68% 30.26 in 10.0 mi NNW 4.6 mph - N/A   Clear
5:55 AM 15.8 °F - 8.6 °F 73% 30.26 in 10.0 mi Calm Calm - N/A   Clear
6:15 AM 17.6 °F - 8.6 °F 68% 30.26 in 10.0 mi Calm Calm - N/A   Clear
6:35 AM 14.0 °F - 5.0 °F 67% 30.27 in 10.0 mi Calm Calm - N/A   Clear
6:55 AM 17.6 °F - 8.6 °F 68% 30.28 in 10.0 mi Calm Calm - N/A   Clear
7:15 AM 14.0 °F 6.5 °F 6.8 °F 73% 30.28 in 10.0 mi NW 4.6 mph - N/A   Clear
7:35 AM 12.2 °F - 5.0 °F 73% 30.29 in 10.0 mi Calm Calm - N/A   Clear
7:55 AM 17.6 °F - 8.6 °F 68% 30.29 in 10.0 mi Calm Calm - N/A   Clear
8:15 AM 24.8 °F - 12.2 °F 59% 30.30 in 10.0 mi Calm Calm - N/A   Clear
8:35 AM 28.4 °F - 12.2 °F 51% 30.30 in 10.0 mi Calm Calm - N/A   Clear
8:55 AM 32.0 °F 28.7 °F 17.6 °F 55% 30.30 in 10.0 mi SE 3.5 mph - N/A   Clear
9:15 AM 33.8 °F 30.8 °F 15.8 °F 48% 30.30 in 10.0 mi SE 3.5 mph - N/A   Clear
9:35 AM 37.4 °F 34.9 °F 15.8 °F 41% 30.31 in 10.0 mi SSE 3.5 mph - N/A   Clear
9:55 AM 41.0 °F 37.1 °F 12.2 °F 31% 30.30 in 10.0 mi SSE 5.8 mph - N/A   Clear
10:15 AM 44.6 °F 41.4 °F 14.0 °F 29% 30.30 in 10.0 mi SE 5.8 mph - N/A   Clear
10:35 AM 50.0 °F - 14.0 °F 24% 30.30 in 10.0 mi SE 6.9 mph - N/A   Clear
10:55 AM 50.0 °F - 12.2 °F 22% 30.29 in 10.0 mi SSE 6.9 mph - N/A   Clear
11:15 AM 51.8 °F - 12.2 °F 21% 30.29 in 10.0 mi SE 4.6 mph - N/A   Clear
11:35 AM - - - N/A% - - North - - N/A   Unknown
11:55 AM - - - N/A% - - North - - N/A   Unknown
12:15 PM 57.2 °F - 10.4 °F 16% - 10.0 mi North - - N/A   Clear
12:35 PM 57.2 °F - 10.4 °F 16% 30.27 in 10.0 mi ESE 5.8 mph - N/A   Clear
12:55 PM 59.0 °F - 8.6 °F 14% - 10.0 mi North - - N/A   Clear
1:15 PM 60.8 °F - 6.8 °F 12% 30.25 in 10.0 mi South 4.6 mph - N/A   Clear
1:35 PM 60.8 °F - 8.6 °F 13% 30.24 in 10.0 mi East 8.1 mph - N/A   Clear
1:55 PM 60.8 °F - 8.6 °F 13% 30.24 in 10.0 mi ESE 8.1 mph - N/A   Clear
2:15 PM 60.8 °F - 8.6 °F 13% 30.23 in 10.0 mi ESE 10.4 mph - N/A   Clear
2:35 PM 62.6 °F - 8.6 °F 12% 30.23 in 10.0 mi ESE 8.1 mph - N/A   Clear
2:55 PM 60.8 °F - 10.4 °F 14% 30.23 in 10.0 mi ESE 10.4 mph - N/A   Unknown
3:15 PM 60.8 °F - 10.4 °F 14% 30.23 in 10.0 mi ESE 10.4 mph 17.3 mph N/A   Clear
3:35 PM 60.8 °F - 10.4 °F 14% 30.23 in 10.0 mi ESE 12.7 mph - N/A   Clear
3:55 PM 59.0 °F - 10.4 °F 15% 30.22 in 10.0 mi ESE 12.7 mph 17.3 mph N/A   Clear
4:15 PM 59.0 °F - 10.4 °F 15% 30.22 in 10.0 mi East 13.8 mph - N/A   Clear
4:35 PM 57.2 °F - 10.4 °F 16% 30.23 in 10.0 mi ESE 11.5 mph - N/A   Clear
4:55 PM 57.2 °F - 12.2 °F 17% 30.23 in 10.0 mi ESE 12.7 mph 16.1 mph N/A   Clear
5:15 PM 55.4 °F - 10.4 °F 17% 30.23 in 10.0 mi ESE 9.2 mph - N/A   Clear
5:35 PM 53.6 °F - 12.2 °F 19% 30.23 in 10.0 mi ESE 9.2 mph - N/A   Clear
5:55 PM 51.8 °F - 12.2 °F 21% 30.23 in 10.0 mi ESE 8.1 mph - N/A   Clear
6:15 PM 50.0 °F - 12.2 °F 22% 30.24 in 10.0 mi ESE 8.1 mph - N/A   Clear
6:35 PM 46.4 °F 44.3 °F 12.2 °F 25% 30.24 in 10.0 mi SSE 4.6 mph - N/A   Clear
6:55 PM 46.4 °F - 12.2 °F 25% 30.25 in 10.0 mi Calm Calm - N/A   Clear
7:15 PM 41.0 °F - 10.4 °F 29% 30.26 in 10.0 mi Calm Calm - N/A   Clear
7:35 PM 39.2 °F - 8.6 °F 28% 30.26 in 10.0 mi Calm Calm - N/A   Clear
7:55 PM 39.2 °F - 8.6 °F 28% 30.27 in 10.0 mi Calm Calm - N/A   Clear
8:15 PM 41.0 °F - 10.4 °F 29% 30.27 in 10.0 mi Calm Calm - N/A   Clear
8:35 PM 39.2 °F 35.9 °F 10.4 °F 31% 30.27 in 10.0 mi North 4.6 mph - N/A   Clear
8:55 PM 37.4 °F 33.8 °F 10.4 °F 33% 30.28 in 10.0 mi North 4.6 mph - N/A   Clear
9:15 PM 37.4 °F - 14.0 °F 38% 30.28 in 10.0 mi Calm Calm - N/A   Clear
9:35 PM 35.6 °F - 12.2 °F 38% 30.28 in 10.0 mi Calm Calm - N/A   Clear
9:55 PM 35.6 °F - 15.8 °F 44% 30.27 in 10.0 mi Calm Calm - N/A   Clear
10:15 PM 37.4 °F - 17.6 °F 45% 30.27 in 10.0 mi Calm Calm - N/A   Clear
10:35 PM 33.8 °F 29.6 °F 15.8 °F 48% 30.27 in 10.0 mi North 4.6 mph - N/A   Clear
10:55 PM 35.6 °F - 15.8 °F 44% 30.26 in 10.0 mi Calm Calm - N/A   Clear
11:15 PM 33.8 °F - 14.0 °F 44% 30.26 in 10.0 mi Calm Calm - N/A   Clear
11:35 PM 32.0 °F 28.7 °F 12.2 °F 44% 30.26 in 10.0 mi NW 3.5 mph - N/A   Clear
11:55 PM 32.0 °F - 12.2 °F 44% 30.26 in 10.0 mi Calm Calm - N/A   Clear